| time (UTC) | temp F | wind direction | speed knots | gust knots | rain 1hr in | rain 24hr in | rain mn in | humidity % | barometer mb |
| 20260507212124 | 56 | 270 | 1.7 | 7.0 | 0.00 | 0.00 | 0.97 | 82 | 1000.2 |
| 20260507211617 | 56 | 225 | 3.5 | 9.6 | 0.00 | 0.00 | 0.97 | 80 | 1000.3 |
| 20260507211104 | 56 | 293 | 1.7 | 11.3 | 0.00 | 0.00 | 0.97 | 80 | 1000.4 |
| 20260507210554 | 56 | 315 | 3.5 | 11.3 | 0.00 | 0.00 | 0.97 | 80 | 1000.4 |
| 20260507210044 | 56 | 248 | 4.3 | 7.8 | 0.00 | 0.00 | 0.97 | 81 | 1000.3 |
| 20260507205533 | 56 | 338 | 3.5 | 9.6 | 0.00 | 0.00 | 0.97 | 80 | 1000.3 |
| 20260507205024 | 56 | 293 | 3.5 | 9.6 | 0.00 | 0.00 | 0.97 | 79 | 1000.1 |
| 20260507204513 | 56 | 338 | 1.7 | 9.6 | 0.00 | 0.00 | 0.97 | 79 | 999.8 |
| 20260507204003 | 56 | 338 | 3.5 | 13.0 | 0.00 | 0.00 | 0.97 | 78 | 1000.0 |
| 20260507203452 | 57 | 315 | 6.1 | 13.0 | 0.00 | 0.00 | 0.97 | 77 | 999.8 |
| 20260507202946 | 57 | 338 | 6.1 | 11.3 | 0.00 | 0.00 | 0.97 | 77 | 999.7 |
| 20260507202434 | 57 | 270 | 5.2 | 9.6 | 0.00 | 0.00 | 0.97 | 76 | 999.7 |
| 20260507201928 | 57 | 315 | 2.6 | 9.6 | 0.00 | 0.00 | 0.97 | 75 | 999.8 |
| 20260507201412 | 57 | 293 | 2.6 | 11.3 | 0.00 | 0.00 | 0.97 | 74 | 999.7 |
| 20260507200903 | 57 | 248 | 3.5 | 11.3 | 0.00 | 0.00 | 0.97 | 74 | 999.7 |
| 20260507195844 | 57 | 203 | 3.5 | 13.9 | 0.00 | 0.00 | 0.97 | 73 | 999.4 |
| 20260507195344 | 58 | 338 | 5.2 | 13.9 | 0.00 | 0.00 | 0.97 | 74 | 998.8 |
| 20260507194821 | 58 | 248 | 3.5 | 9.6 | 0.00 | 0.00 | 0.97 | 74 | 998.6 |
| 20260507193252 | 58 | 203 | 3.5 | 14.8 | 0.00 | 0.00 | 0.97 | 72 | 998.2 |
| 20260507192741 | 59 | 270 | 3.5 | 9.6 | 0.00 | 0.00 | 0.97 | 72 | 998.3 |
| 20260507191721 | 59 | 0 | 1.7 | 12.2 | 0.00 | 0.00 | 0.97 | 71 | 998.7 |
| 20260507191211 | 59 | 180 | 2.6 | 12.2 | 0.00 | 0.00 | 0.97 | 70 | 998.9 |
| 20260507190701 | 60 | 45 | 3.5 | 11.3 | 0.00 | 0.00 | 0.97 | 69 | 999.1 |
| 20260507190150 | 60 | 248 | 7.0 | 13.0 | 0.00 | 0.00 | 0.97 | 69 | 999.3 |
| 20260507185644 | 59 | 293 | 6.1 | 13.0 | 0.00 | 0.00 | 0.97 | 69 | 999.7 |
| 20260507184626 | 59 | 248 | 3.5 | 9.6 | 0.00 | 0.00 | 0.97 | 72 | 1000.3 |
| 20260507184110 | 59 | 270 | 3.5 | 11.3 | 0.00 | 0.00 | 0.97 | 72 | 1000.5 |
| 20260507182541 | 59 | 293 | 3.5 | 20.0 | 0.00 | 0.00 | 0.97 | 72 | 1000.5 |
| 20260507182027 | 59 | 248 | 5.2 | 20.0 | 0.00 | 0.00 | 0.97 | 71 | 1000.7 |
| 20260507181517 | 59 | 315 | 3.5 | 9.6 | 0.00 | 0.00 | 0.97 | 73 | 1001.1 |
| 20260507181011 | 59 | 338 | 6.1 | 12.2 | 0.00 | 0.00 | 0.97 | 73 | 1001.1 |
| 20260507180459 | 59 | 338 | 6.1 | 12.2 | 0.00 | 0.00 | 0.97 | 73 | 1001.2 |
| 20260507175440 | 59 | 293 | 3.5 | 13.9 | 0.00 | 0.00 | 0.97 | 73 | 1001.3 |
| 20260507174930 | 59 | 45 | 3.5 | 11.3 | 0.00 | 0.00 | 0.97 | 74 | 1001.5 |
| 20260507174419 | 59 | 68 | 7.0 | 11.3 | 0.00 | 0.00 | 0.97 | 74 | 1001.5 |
| 20260507173909 | 59 | 338 | 2.6 | 12.2 | 0.00 | 0.00 | 0.97 | 76 | 1001.1 |
| 20260507173359 | 59 | 225 | 3.5 | 12.2 | 0.00 | 0.00 | 0.97 | 74 | 1001.3 |
| 20260507172342 | 59 | 315 | 2.6 | 7.0 | 0.00 | 0.00 | 0.97 | 73 | 1000.1 |
| 20260507171829 | 59 | 203 | 3.5 | 7.8 | 0.00 | 0.00 | 0.97 | 73 | 999.9 |
| 20260507171318 | 59 | 225 | 1.7 | 7.8 | 0.00 | 0.00 | 0.97 | 74 | 1000.0 |
| 20260507170808 | 59 | 180 | 2.6 | 7.8 | 0.00 | 0.00 | 0.97 | 73 | 999.9 |
| 20260507170259 | 59 | 315 | 1.7 | 7.8 | 0.00 | 0.00 | 0.97 | 74 | 999.9 |
| 20260507165748 | 59 | 203 | 3.5 | 9.6 | 0.00 | 0.00 | 0.97 | 73 | 1000.0 |
| 20260507165239 | 59 | 293 | 2.6 | 11.3 | 0.00 | 0.00 | 0.97 | 73 | 1000.1 |
| 20260507164728 | 59 | 0 | 1.7 | 11.3 | 0.00 | 0.00 | 0.97 | 74 | 1000.3 |
| 20260507164218 | 59 | 293 | 3.5 | 7.8 | 0.00 | 0.00 | 0.97 | 74 | 1000.3 |
| 20260507163711 | 59 | 158 | 1.7 | 9.6 | 0.00 | 0.00 | 0.97 | 76 | 1001.0 |
| 20260507163158 | 59 | 338 | 3.5 | 9.6 | 0.00 | 0.00 | 0.97 | 75 | 1001.0 |
| 20260507162648 | 59 | 248 | 1.7 | 7.8 | 0.00 | 0.00 | 0.97 | 75 | 1001.2 |
| 20260507162139 | 59 | 270 | 3.5 | 7.0 | 0.00 | 0.00 | 0.97 | 75 | 1001.4 |
| 20260507161627 | 59 | 270 | 3.5 | 7.0 | 0.00 | 0.00 | 0.97 | 75 | 1001.4 |
| 20260507161117 | 59 | 248 | 3.5 | 7.0 | 0.00 | 0.00 | 0.97 | 75 | 1001.2 |
| 20260507160607 | 59 | 248 | 2.6 | 9.6 | 0.00 | 0.00 | 0.97 | 76 | 1000.8 |
| 20260507160058 | 59 | 203 | 3.5 | 9.6 | 0.00 | 0.00 | 0.97 | 75 | 1000.5 |
| 20260507155547 | 59 | 225 | 2.6 | 7.8 | 0.00 | 0.00 | 0.97 | 76 | 1000.2 |
| 20260507155043 | 59 | 248 | 1.7 | 7.8 | 0.00 | 0.00 | 0.97 | 77 | 1000.5 |
| 20260507154528 | 58 | 315 | 3.5 | 9.6 | 0.00 | 0.00 | 0.97 | 77 | 1000.5 |
| 20260507154016 | 58 | 338 | 3.5 | 9.6 | 0.00 | 0.00 | 0.97 | 76 | 1000.2 |
| 20260507152956 | 59 | 248 | 1.7 | 7.0 | 0.00 | 0.00 | 0.97 | 78 | 1000.0 |
| 20260507152447 | 59 | 158 | 2.6 | 7.8 | 0.00 | 0.00 | 0.97 | 77 | 1000.5 |
| 20260507151936 | 59 | 225 | 3.5 | 7.8 | 0.00 | 0.00 | 0.97 | 77 | 1000.7 |
| 20260507151426 | 59 | 338 | 3.5 | 11.3 | 0.00 | 0.00 | 0.97 | 76 | 1000.5 |
| 20260507150408 | 59 | 248 | 2.6 | 0.0 | 0.00 | 0.00 | 0.97 | 75 | 1000.5 |
| 20260507150152 | 60 | 180 | 3.5 | 0.0 | 0.00 | 0.00 | 0.97 | 75 | 1000.7 |
| 20260507145720 | 59 | 203 | 3.5 | 11.3 | 0.00 | 0.00 | 0.97 | 74 | 1000.8 |
| 20260507145211 | 59 | 248 | 3.5 | 11.3 | 0.00 | 0.00 | 0.97 | 75 | 1000.8 |
| 20260507144703 | 59 | 225 | 3.5 | 7.8 | 0.00 | 0.00 | 0.97 | 76 | 1000.5 |
| 20260507144151 | 59 | 203 | 1.7 | 11.3 | 0.00 | 0.00 | 0.97 | 77 | 1000.6 |
| 20260507143641 | 59 | 158 | 2.6 | 12.2 | 0.00 | 0.00 | 0.97 | 77 | 1000.6 |
| 20260507143130 | 59 | 338 | 5.2 | 12.2 | 0.00 | 0.00 | 0.97 | 80 | 1000.5 |
| 20260507142620 | 60 | 338 | 3.5 | 9.6 | 0.00 | 0.00 | 0.97 | 83 | 1000.7 |
| 20260507142110 | 60 | 270 | 2.6 | 9.6 | 0.00 | 0.00 | 0.97 | 85 | 1000.5 |
| 20260507141600 | 60 | 315 | 4.3 | 9.6 | 0.00 | 0.00 | 0.97 | 86 | 1000.4 |
| 20260507140545 | 60 | 293 | 1.7 | 7.0 | 0.00 | 0.00 | 0.97 | 88 | 1000.0 |
| 20260507135520 | 61 | 158 | 0.9 | 5.2 | 0.00 | 0.00 | 0.97 | 87 | 999.2 |
| 20260507135010 | 61 | 248 | 1.7 | 5.2 | 0.00 | 0.00 | 0.97 | 87 | 999.6 |
| 20260507134459 | 61 | 225 | 2.6 | 5.2 | 0.00 | 0.00 | 0.97 | 87 | 999.9 |
| 20260507133949 | 61 | 270 | 0.9 | 6.1 | 0.00 | 0.00 | 0.97 | 88 | 999.9 |
| 20260507133438 | 61 | 158 | 0.9 | 6.1 | 0.00 | 0.00 | 0.97 | 87 | 1000.0 |
| 20260507132928 | 61 | 270 | 2.6 | 5.2 | 0.00 | 0.00 | 0.97 | 87 | 1000.6 |
| 20260507132421 | 61 | 203 | 1.7 | 6.1 | 0.00 | 0.00 | 0.97 | 86 | 1000.9 |
| 20260507131909 | 61 | 203 | 1.7 | 6.1 | 0.00 | 0.00 | 0.97 | 87 | 1001.3 |
| 20260507131358 | 61 | 338 | 1.7 | 1.7 | 0.00 | 0.00 | 0.97 | 88 | 1001.2 |
| 20260507130848 | 61 | 203 | 0.0 | 1.7 | 0.00 | 0.00 | 0.97 | 87 | 1000.9 |
| 20260507130404 | 60 | 225 | 1.7 | 1.7 | 0.00 | 0.00 | 0.97 | 88 | 1000.9 |
| 20260507125828 | 60 | 338 | 0.9 | 1.7 | 0.00 | 0.00 | 0.97 | 90 | 1001.4 |
| 20260507124809 | 60 | 338 | 1.7 | 5.2 | 0.00 | 0.00 | 0.97 | 89 | 1001.2 |
| 20260507124257 | 60 | 338 | 1.7 | 7.0 | 0.00 | 0.00 | 0.97 | 89 | 1001.0 |
| 20260507123752 | 60 | 315 | 1.7 | 7.0 | 0.00 | 0.00 | 0.97 | 89 | 1000.0 |
| 20260507123237 | 60 | 68 | 1.7 | 7.0 | 0.00 | 0.00 | 0.97 | 88 | 999.4 |
| 20260507122217 | 60 | 248 | 1.7 | 7.0 | 0.00 | 0.00 | 0.97 | 88 | 999.7 |
| 20260507121708 | 60 | 225 | 1.7 | 6.1 | 0.00 | 0.00 | 0.97 | 88 | 999.6 |
| 20260507121157 | 60 | 248 | 3.5 | 6.1 | 0.00 | 0.00 | 0.97 | 88 | 999.9 |
| 20260507115626 | 60 | 248 | 3.5 | 7.8 | 0.00 | 0.00 | 0.97 | 88 | 1000.2 |
| 20260507115123 | 60 | 248 | 2.6 | 9.6 | 0.00 | 0.00 | 0.97 | 89 | 999.8 |
| 20260507114606 | 60 | 248 | 3.5 | 9.6 | 0.00 | 0.00 | 0.97 | 88 | 999.2 |
| 20260507114059 | 60 | 293 | 3.5 | 11.3 | 0.00 | 0.00 | 0.97 | 90 | 998.5 |
| 20260507113546 | 60 | 180 | 3.5 | 11.3 | 0.00 | 0.00 | 0.97 | 89 | 998.5 |
| 20260507113038 | 60 | 225 | 3.5 | 9.6 | 0.00 | 0.00 | 0.97 | 89 | 998.9 |
| 20260507112526 | 60 | 248 | 2.6 | 9.6 | 0.00 | 0.00 | 0.97 | 89 | 1000.0 |
| 20260507112018 | 60 | 225 | 1.7 | 7.0 | 0.00 | 0.00 | 0.97 | 90 | 1000.1 |
| 20260507111515 | 60 | 225 | 0.0 | 7.0 | 0.00 | 0.00 | 0.97 | 90 | 1000.1 |
| 20260507110956 | 60 | 315 | 1.7 | 6.1 | 0.00 | 0.00 | 0.97 | 90 | 999.8 |
| 20260507105935 | 60 | 248 | 1.7 | 6.1 | 0.00 | 0.00 | 0.97 | 92 | 998.6 |
| 20260507105425 | 60 | 225 | 3.5 | 6.1 | 0.00 | 0.00 | 0.97 | 92 | 998.3 |
| 20260507104915 | 60 | 248 | 0.9 | 5.2 | 0.00 | 0.00 | 0.97 | 92 | 998.7 |
| 20260507104405 | 60 | 248 | 0.9 | 3.5 | 0.00 | 0.00 | 0.97 | 93 | 998.4 |
| 20260507103855 | 60 | 270 | 0.0 | 3.5 | 0.00 | 0.00 | 0.97 | 93 | 998.7 |
| 20260507103345 | 61 | 315 | 1.7 | 7.0 | 0.00 | 0.00 | 0.97 | 93 | 998.8 |
| 20260507102835 | 61 | 180 | 0.0 | 7.0 | 0.00 | 0.00 | 0.97 | 93 | 998.5 |
| 20260507102324 | 61 | 338 | 2.6 | 6.1 | 0.00 | 0.00 | 0.97 | 93 | 998.9 |
| 20260507101818 | 61 | 270 | 1.7 | 5.2 | 0.00 | 0.00 | 0.97 | 93 | 998.9 |
| 20260507101305 | 61 | 293 | 1.7 | 5.2 | 0.00 | 0.00 | 0.97 | 93 | 999.0 |
| 20260507100755 | 61 | 315 | 1.7 | 7.8 | 0.00 | 0.00 | 0.97 | 93 | 999.1 |
| 20260507100245 | 61 | 315 | 3.5 | 9.6 | 0.00 | 0.00 | 0.97 | 93 | 998.7 |
| 20260507095734 | 61 | 225 | 2.6 | 9.6 | 0.00 | 0.00 | 0.97 | 94 | 997.9 |
| 20260507095225 | 61 | 248 | 4.3 | 7.8 | 0.00 | 0.00 | 0.97 | 95 | 997.3 |
| 20260507094714 | 61 | 338 | 3.5 | 7.8 | 0.00 | 0.00 | 0.97 | 95 | 997.4 |
| 20260507094204 | 61 | 315 | 1.7 | 7.8 | 0.00 | 0.00 | 0.97 | 95 | 997.5 |
| 20260507093653 | 62 | 180 | 1.7 | 7.8 | 0.00 | 0.00 | 0.97 | 95 | 998.0 |
| 20260507093146 | 62 | 158 | 1.7 | 9.6 | 0.00 | 0.00 | 0.97 | 96 | 998.6 |
| 20260507092123 | 62 | 248 | 2.6 | 7.0 | 0.00 | 0.00 | 0.97 | 96 | 998.2 |
| 20260507091614 | 62 | 225 | 1.7 | 7.8 | 0.00 | 0.00 | 0.97 | 96 | 998.5 |
| 20260507090553 | 62 | 225 | 1.7 | 3.5 | 0.00 | 0.00 | 0.97 | 96 | 999.1 |
| 20260507090043 | 62 | 293 | 1.7 | 3.5 | 0.00 | 0.00 | 0.97 | 96 | 999.1 |
| 20260507085535 | 62 | 293 | 1.7 | 1.7 | 0.00 | 0.00 | 0.97 | 96 | 998.7 |
| 20260507085022 | 62 | 225 | 0.0 | 1.7 | 0.00 | 0.00 | 0.97 | 96 | 998.2 |
| 20260507084516 | 62 | 180 | 0.0 | 5.2 | 0.00 | 0.00 | 0.97 | 95 | 997.9 |
| 20260507084002 | 62 | 203 | 0.9 | 7.8 | 0.00 | 0.00 | 0.97 | 95 | 997.9 |
| 20260507083452 | 62 | 315 | 3.5 | 7.8 | 0.00 | 0.00 | 0.97 | 95 | 998.0 |
| 20260507082942 | 62 | 248 | 2.6 | 7.0 | 0.00 | 0.00 | 0.97 | 95 | 998.2 |
| 20260507081922 | 63 | 135 | 2.6 | 9.6 | 0.00 | 0.00 | 0.97 | 95 | 998.2 |
| 20260507081412 | 63 | 225 | 3.5 | 9.6 | 0.00 | 0.00 | 0.97 | 95 | 998.8 |
| 20260507080902 | 63 | 203 | 1.7 | 5.2 | 0.00 | 0.00 | 0.97 | 95 | 998.9 |
| 20260507080352 | 63 | 270 | 1.7 | 5.2 | 0.00 | 0.00 | 0.97 | 95 | 999.4 |
| 20260507075844 | 63 | 270 | 1.7 | 5.2 | 0.00 | 0.00 | 0.97 | 95 | 999.7 |
| 20260507074850 | 63 | 225 | 3.5 | 6.1 | 0.00 | 0.97 | 0.97 | 96 | 999.0 |
| 20260507073830 | 63 | 270 | 1.7 | 6.1 | 0.00 | 0.97 | 0.97 | 96 | 998.9 |
| 20260507073319 | 64 | 248 | 2.6 | 3.5 | 0.00 | 0.97 | 0.97 | 96 | 998.3 |
| 20260507072809 | 64 | 270 | 0.0 | 1.7 | 0.00 | 0.97 | 0.97 | 96 | 997.9 |
| 20260507072306 | 64 | 270 | 0.0 | 1.7 | 0.00 | 0.97 | 0.97 | 96 | 997.8 |
| 20260507071749 | 64 | 270 | 0.0 | 1.7 | 0.00 | 0.97 | 0.97 | 95 | 998.1 |
| 20260507070729 | 64 | 315 | 0.0 | 1.7 | 0.01 | 0.97 | 0.97 | 95 | 998.4 |
| 20260507070219 | 64 | 68 | 0.9 | 6.1 | 0.02 | 0.97 | 0.97 | 94 | 998.1 |
| 20260507065709 | 64 | 45 | 0.0 | 7.0 | 0.05 | 0.97 | 0.97 | 94 | 997.8 |
| 20260507064648 | 64 | 68 | 2.6 | 7.0 | 0.07 | 0.97 | 0.97 | 94 | 997.5 |
| 20260507063631 | 64 | 68 | 0.9 | 5.2 | 0.09 | 0.97 | 0.97 | 95 | 998.1 |
| 20260507063118 | 64 | 68 | 1.7 | 5.2 | 0.11 | 0.97 | 0.97 | 95 | 998.3 |
| 20260507062058 | 64 | 113 | 2.6 | 7.8 | 0.12 | 0.97 | 0.97 | 96 | 997.0 |
| 20260507061548 | 64 | 90 | 1.7 | 6.1 | 0.12 | 0.97 | 0.97 | 96 | 997.8 |
| 20260507061037 | 64 | 45 | 1.7 | 6.1 | 0.11 | 0.96 | 0.96 | 97 | 998.6 |
| 20260507060527 | 64 | 158 | 1.7 | 3.5 | 0.09 | 0.94 | 0.94 | 97 | 998.7 |
| 20260507060017 | 65 | 90 | 0.0 | 3.5 | 0.09 | 0.93 | 0.93 | 96 | 998.7 |
| 20260507055511 | 65 | 113 | 0.9 | 3.5 | 0.08 | 0.92 | 0.92 | 96 | 999.0 |
| 20260507055001 | 65 | 158 | 1.7 | 3.5 | 0.08 | 0.91 | 0.91 | 96 | 1000.0 |
| 20260507054447 | 65 | 135 | 1.7 | 3.5 | 0.07 | 0.90 | 0.90 | 96 | 1000.7 |
| 20260507053937 | 65 | 135 | 0.9 | 6.1 | 0.07 | 0.89 | 0.89 | 96 | 1001.2 |
| 20260507053427 | 66 | 315 | 0.9 | 7.8 | 0.07 | 0.87 | 0.87 | 96 | 1001.4 |
| 20260507052917 | 66 | 248 | 3.5 | 7.8 | 0.08 | 0.86 | 0.86 | 96 | 1001.0 |
| 20260507052407 | 66 | 225 | 2.6 | 7.8 | 0.11 | 0.86 | 0.86 | 96 | 1000.3 |
| 20260507051857 | 66 | 270 | 1.7 | 6.1 | 0.14 | 0.85 | 0.85 | 96 | 1000.7 |
| 20260507051346 | 66 | 270 | 2.6 | 7.0 | 0.14 | 0.85 | 0.85 | 96 | 999.7 |
| 20260507050836 | 66 | 248 | 1.7 | 7.0 | 0.18 | 0.85 | 0.85 | 96 | 998.5 |
| 20260507050329 | 66 | 203 | 1.7 | 6.1 | 0.19 | 0.85 | 0.85 | 95 | 998.7 |
| 20260507045817 | 66 | 180 | 3.5 | 5.2 | 0.19 | 0.84 | 0.84 | 96 | 998.6 |
| 20260507045306 | 66 | 225 | 0.0 | 3.5 | 0.34 | 0.84 | 0.84 | 95 | 999.5 |
| 20260507044756 | 66 | 225 | 1.7 | 6.1 | 0.57 | 0.83 | 0.83 | 95 | 999.5 |
| 20260507044246 | 66 | 225 | 1.7 | 9.6 | 0.70 | 0.81 | 0.81 | 95 | 999.3 |
| 20260507043735 | 66 | 293 | 3.5 | 9.6 | 0.73 | 0.81 | 0.81 | 95 | 999.1 |
| 20260507043226 | 67 | 158 | 1.7 | 6.1 | 0.74 | 0.80 | 0.80 | 96 | 998.4 |
| 20260507042715 | 67 | 203 | 1.7 | 7.0 | 0.74 | 0.77 | 0.77 | 96 | 999.5 |
| 20260507042206 | 67 | 270 | 2.6 | 7.0 | 0.73 | 0.73 | 0.73 | 96 | 1000.0 |
| 20260507041658 | 67 | 248 | 2.6 | 6.1 | 0.71 | 0.71 | 0.71 | 96 | 998.7 |
| 20260507041145 | 68 | 293 | 3.5 | 6.1 | 0.70 | 0.70 | 0.70 | 96 | 999.9 |
| 20260507040634 | 68 | 315 | 1.7 | 7.0 | 0.67 | 0.67 | 0.67 | 96 | 999.5 |
| 20260507040122 | 68 | 90 | 1.7 | 9.6 | 0.65 | 0.65 | 0.65 | 96 | 999.1 |
| 20260507035615 | 68 | 135 | 3.5 | 12.2 | 0.61 | 0.61 | 0.64 | 96 | 999.0 |
| 20260507034555 | 69 | 180 | 3.5 | 9.6 | 0.17 | 0.17 | 0.18 | 95 | 998.2 |
| 20260507033535 | 70 | 158 | 3.5 | 6.1 | 0.07 | 0.07 | 0.08 | 93 | 998.1 |
| 20260507033027 | 70 | 248 | 3.5 | 14.8 | 0.06 | 0.06 | 0.06 | 92 | 997.9 |
| 20260507032514 | 72 | 248 | 5.2 | 14.8 | 0.00 | 0.00 | 0.01 | 88 | 998.3 |
| 20260507032005 | 75 | 225 | 5.2 | 13.9 | 0.00 | 0.00 | 0.00 | 79 | 998.4 |
| 20260507031454 | 78 | 293 | 1.7 | 13.9 | 0.00 | 0.00 | 0.00 | 79 | 997.4 |
| 20260507030943 | 78 | 0 | 7.0 | 13.9 | 0.00 | 0.00 | 0.00 | 79 | 996.0 |
| 20260507030434 | 78 | 0 | 4.3 | 13.0 | 0.00 | 0.00 | 0.00 | 79 | 996.2 |
| 20260507025923 | 78 | 315 | 7.0 | 9.6 | 0.00 | 0.00 | 0.07 | 79 | 996.4 |
| 20260507025413 | 78 | 338 | 4.3 | 9.6 | 0.00 | 0.00 | 0.07 | 79 | 996.6 |
| 20260507024903 | 78 | 338 | 4.3 | 11.3 | 0.00 | 0.00 | 0.07 | 78 | 996.6 |
| 20260507024411 | 78 | 338 | 5.2 | 11.3 | 0.00 | 0.00 | 0.07 | 78 | 996.7 |
| 20260507023843 | 78 | 315 | 5.2 | 11.3 | 0.00 | 0.00 | 0.07 | 77 | 996.8 |
| 20260507023333 | 79 | 338 | 4.3 | 12.2 | 0.00 | 0.00 | 0.07 | 77 | 997.2 |
| 20260507022823 | 79 | 23 | 6.1 | 12.2 | 0.00 | 0.00 | 0.07 | 77 | 997.1 |
| 20260507022313 | 78 | 23 | 6.1 | 12.2 | 0.00 | 0.00 | 0.07 | 77 | 996.8 |
| 20260507021803 | 79 | 23 | 4.3 | 12.2 | 0.00 | 0.00 | 0.07 | 77 | 997.1 |
| 20260507021255 | 78 | 338 | 7.0 | 9.6 | 0.00 | 0.00 | 0.07 | 77 | 997.3 |
| 20260507020742 | 78 | 293 | 6.1 | 11.3 | 0.00 | 0.00 | 0.07 | 77 | 997.2 |
| 20260507015725 | 78 | 315 | 5.2 | 9.6 | 0.00 | 0.00 | 0.07 | 77 | 997.7 |
| 20260507014702 | 79 | 0 | 4.3 | 9.6 | 0.00 | 0.00 | 0.07 | 76 | 998.0 |
| 20260507014151 | 79 | 315 | 5.2 | 9.6 | 0.00 | 0.00 | 0.07 | 77 | 998.2 |
| 20260507013642 | 79 | 23 | 3.5 | 14.8 | 0.00 | 0.00 | 0.07 | 76 | 998.0 |
| 20260507013132 | 79 | 338 | 6.1 | 14.8 | 0.00 | 0.00 | 0.07 | 76 | 997.9 |
| 20260507012111 | 79 | 338 | 6.1 | 15.6 | 0.00 | 0.00 | 0.07 | 76 | 998.0 |
| 20260507011602 | 80 | 0 | 9.6 | 14.8 | 0.00 | 0.00 | 0.07 | 75 | 998.1 |
| 20260507011054 | 80 | 338 | 7.0 | 14.8 | 0.00 | 0.00 | 0.07 | 75 | 998.2 |
| 20260507010544 | 80 | 338 | 10.4 | 14.8 | 0.00 | 0.00 | 0.07 | 75 | 998.0 |
| 20260507010031 | 80 | 0 | 9.6 | 14.8 | 0.00 | 0.00 | 0.07 | 75 | 997.9 |
| 20260507005521 | 80 | 315 | 7.0 | 12.2 | 0.00 | 0.00 | 0.07 | 75 | 997.7 |
| 20260507005010 | 80 | 338 | 4.3 | 13.0 | 0.00 | 0.00 | 0.07 | 76 | 998.2 |
| 20260507004500 | 80 | 315 | 7.0 | 13.0 | 0.00 | 0.00 | 0.07 | 75 | 998.2 |
| 20260507003440 | 80 | 315 | 6.1 | 13.9 | 0.00 | 0.00 | 0.07 | 75 | 998.2 |
| 20260507002423 | 80 | 315 | 5.2 | 11.3 | 0.00 | 0.00 | 0.07 | 75 | 998.4 |
| 20260507001910 | 80 | 23 | 3.5 | 11.3 | 0.00 | 0.00 | 0.07 | 76 | 998.3 |
| 20260507001405 | 79 | 338 | 4.3 | 11.3 | 0.00 | 0.00 | 0.07 | 76 | 998.2 |
| 20260507000849 | 79 | 338 | 7.0 | 13.0 | 0.00 | 0.00 | 0.07 | 76 | 998.1 |
| 20260507000343 | 79 | 338 | 5.2 | 13.0 | 0.00 | 0.00 | 0.07 | 76 | 997.8 |
| 20260506235829 | 79 | 0 | 4.3 | 9.6 | 0.00 | 0.00 | 0.07 | 77 | 997.6 |
| 20260506235319 | 79 | 338 | 4.3 | 9.6 | 0.00 | 0.00 | 0.07 | 77 | 997.6 |
| 20260506234809 | 78 | 338 | 5.2 | 9.6 | 0.00 | 0.00 | 0.07 | 78 | 997.9 |
| 20260506234259 | 78 | 0 | 3.5 | 7.8 | 0.00 | 0.00 | 0.07 | 79 | 997.9 |
| 20260506233753 | 77 | 315 | 3.5 | 7.0 | 0.00 | 0.00 | 0.07 | 81 | 998.2 |
| 20260506233239 | 77 | 338 | 1.7 | 5.2 | 0.00 | 0.00 | 0.07 | 82 | 997.8 |
| 20260506232728 | 77 | 0 | 2.6 | 5.2 | 0.00 | 0.00 | 0.07 | 82 | 997.6 |
| 20260506231709 | 77 | 315 | 2.6 | 5.2 | 0.00 | 0.00 | 0.07 | 83 | 997.4 |
| 20260506231158 | 77 | 45 | 1.7 | 5.2 | 0.00 | 0.00 | 0.07 | 82 | 997.9 |
| 20260506230648 | 77 | 0 | 2.6 | 5.2 | 0.00 | 0.00 | 0.07 | 82 | 998.1 |
| 20260506230138 | 77 | 0 | 1.7 | 5.2 | 0.00 | 0.00 | 0.07 | 81 | 998.2 |
| 20260506225628 | 78 | 0 | 1.7 | 5.2 | 0.00 | 0.00 | 0.07 | 81 | 998.1 |
| 20260506225121 | 78 | 0 | 1.7 | 3.5 | 0.00 | 0.00 | 0.07 | 81 | 998.0 |
| 20260506223548 | 77 | 113 | 0.0 | 3.5 | 0.00 | 0.00 | 0.07 | 84 | 998.6 |
| 20260506223041 | 77 | 315 | 1.7 | 3.5 | 0.00 | 0.00 | 0.07 | 83 | 998.4 |
| 20260506222528 | 77 | 338 | 0.9 | 3.5 | 0.00 | 0.00 | 0.07 | 83 | 998.5 |
| 20260506222017 | 77 | 23 | 1.7 | 3.5 | 0.00 | 0.00 | 0.07 | 84 | 998.7 |
| 20260506221508 | 77 | 0 | 1.7 | 3.5 | 0.00 | 0.00 | 0.07 | 84 | 998.6 |
| 20260506220957 | 77 | 0 | 1.7 | 6.1 | 0.00 | 0.00 | 0.07 | 84 | 998.9 |
| 20260506215937 | 77 | 23 | 0.9 | 6.1 | 0.00 | 0.00 | 0.07 | 84 | 999.1 |
| 20260506215427 | 78 | 45 | 1.7 | 3.5 | 0.00 | 0.00 | 0.07 | 84 | 999.0 |
| 20260506214917 | 77 | 23 | 1.7 | 5.2 | 0.00 | 0.00 | 0.07 | 84 | 999.2 |
| 20260506214407 | 78 | 0 | 1.7 | 6.1 | 0.00 | 0.00 | 0.07 | 84 | 999.1 |
| 20260506213858 | 78 | 68 | 2.6 | 6.1 | 0.00 | 0.00 | 0.07 | 84 | 999.4 |
| 20260506213346 | 78 | 45 | 3.5 | 6.1 | 0.00 | 0.00 | 0.07 | 83 | 999.5 |
| 20260506212836 | 78 | 68 | 1.7 | 3.5 | 0.00 | 0.00 | 0.07 | 83 | 999.8 |